Terug naar catalogus

FLOCK 4H 28

ActiefWetenschapSSO
NORAD 66731·PAYLOAD·🇺🇸 United States

Gelanceerd Nov 28, 2025 vanaf Vandenberg Space Force Base

Loading…

Volgende Passages (komende 24 uur)

TLE

VersSource: Space-Track

Epoch: Sep 14, 2026, 14:50 UTC

1 66731U 25276BT  26257.61820640  .00010056  00000-0  45369-3 0  9996
2 66731  97.4103 329.5387 0005470  72.7639 287.4195 15.21188222 44002

Volg FLOCK 4H 28 in realtime met AllMySat

Download on the App Store